FW4141 Weather Reports


Display with metric or nautical units.
time (UTC)temp
F
wind
direction
speed
MPH
gust
MPH
rain 1hr
in
rain 24hr
in
rain mn
in
humidity
%
barometer
mb
20260504081045 76 0.0 0.0 0.00 0.00 0.00 35 1006.6
20260504045054 61 0.0 0.0 0.00 0.00 0.00 52 1005.7
20260504044031 60 0.0 0.0 0.00 0.00 0.00 52 1005.7
20260504043027 60 0.0 0.0 0.00 0.00 0.00 53 1005.7
20260504042024 59 0.0 0.0 0.00 0.00 0.00 53 1005.6
20260504041021 59 0.0 0.0 0.00 0.00 0.00 54 1005.6
20260504040017 59 0.0 0.0 0.00 0.00 0.00 54 1005.6
20260504035112 58 0.0 0.0 0.00 0.00 0.00 56 1005.6
20260504034110 57 0.0 0.0 0.00 0.00 0.00 59 1005.5
20260504033105 55 0.0 0.0 0.00 0.00 0.00 62 1005.5
20260504032103 54 0.0 0.0 0.00 0.00 0.00 65 1005.3
20260504031059 54 0.0 0.0 0.00 0.00 0.00 65 1005.5
20260504030056 53 0.0 0.0 0.00 0.00 0.00 64 1005.5
20260504025112 53 0.0 0.0 0.00 0.00 0.00 63 1005.5
20260504024128 54 0.0 0.0 0.00 0.00 0.00 61 1005.6
20260504023044 54 0.0 0.0 0.00 0.00 0.00 58 1005.6
20260504022103 56 0.0 0.0 0.00 0.00 0.00 54 1005.7
20260504021037 57 0.0 0.0 0.00 0.00 0.00 53 1005.7
20260504020036 58 0.0 0.0 0.00 0.00 0.00 52 1005.7
20260504015030 59 0.0 0.0 0.00 0.00 0.00 51 1005.6
20260504014029 60 0.0 0.0 0.00 0.00 0.00 52 1005.5
20260504013023 60 0.0 0.0 0.00 0.00 0.00 51 1005.4
20260504012019 60 0.0 0.0 0.00 0.00 0.00 51 1005.4
20260504011018 61 0.0 0.0 0.00 0.00 0.00 52 1005.4
20260504010112 61 0.0 0.0 0.00 0.00 0.00 52 1005.1
20260504005111 62 0.0 0.0 0.00 0.00 0.00 51 1005.1
20260504004107 62 0.0 0.0 0.00 0.00 0.00 51 1005.1
20260504003103 62 0.0 0.0 0.00 0.00 0.00 51 1005.1
20260504002101 63 0.0 0.0 0.00 0.00 0.00 51 1005.2
20260504001055 62 0.0 0.0 0.00 0.00 0.00 51 1005.3
20260504000052 63 0.0 0.0 0.00 0.00 0.00 51 1005.2
20260503235048 63 0.0 0.0 0.00 0.00 0.00 51 1005.4
20260503234045 63 0.0 0.0 0.00 0.00 0.00 51 1005.3
20260503233041 63 0.0 0.0 0.00 0.00 0.00 51 1005.4
20260503232037 63 0.0 0.0 0.00 0.00 0.00 50 1005.4
20260503231033 64 0.0 0.0 0.00 0.00 0.00 48 1005.4
20260503230034 64 0.0 0.0 0.00 0.00 0.00 47 1005.5
20260503225047 64 0.0 0.0 0.00 0.00 0.00 47 1005.4
20260503224047 64 0.0 0.0 0.00 0.00 0.00 47 1005.5
20260503223041 64 0.0 0.0 0.00 0.00 0.00 47 1005.4
20260503222117 65 0.0 0.0 0.00 0.00 0.00 46 1005.3
20260503221113 65 0.0 0.0 0.00 0.00 0.00 47 1005.5
20260503220110 65 0.0 0.0 0.00 0.00 0.00 46 1005.4
20260503215129 65 0.0 0.0 0.00 0.00 0.00 46 1005.6
20260503214105 65 0.0 0.0 0.00 0.00 0.00 46 1005.6
20260503213103 65 0.0 0.0 0.00 0.00 0.00 45 1005.7
20260503212108 65 0.0 0.0 0.00 0.00 0.00 45 1005.6
20260503211050 65 0.0 0.0 0.00 0.00 0.00 44 1005.7
20260503210107 66 0.0 0.0 0.00 0.00 0.00 44 1005.7
20260503205049 66 0.0 0.0 0.00 0.00 0.00 45 1005.9
20260503204037 66 0.0 0.0 0.00 0.00 0.00 45 1005.8
20260503203038 66 0.0 0.0 0.00 0.00 0.00 42 1005.8
20260503202031 66 0.0 0.0 0.00 0.00 0.00 41 1005.8
20260503201027 66 0.0 0.0 0.00 0.00 0.00 42 1005.8
20260503200025 66 0.0 0.0 0.00 0.00 0.00 42 1005.8
20260503195023 67 0.0 0.0 0.00 0.00 0.00 41 1005.9
20260503194016 67 0.0 0.0 0.00 0.00 0.00 41 1005.9
20260503193133 69 0.0 0.0 0.00 0.00 0.00 40 1005.9
20260503192130 71 0.0 0.0 0.00 0.00 0.00 37 1005.8
20260503191115 72 0.0 0.0 0.00 0.00 0.00 32 1005.8
20260503190105 73 0.0 0.0 0.00 0.00 0.00 30 1005.6
20260503185105 73 0.0 0.0 0.00 0.00 0.00 28 1005.6
20260503184111 74 0.0 0.0 0.00 0.00 0.00 28 1005.5
20260503183135 74 0.0 0.0 0.00 0.00 0.00 26 1005.5
20260503182053 75 0.0 0.0 0.00 0.00 0.00 26 1005.3
20260503181054 76 0.0 0.0 0.00 0.00 0.00 25 1005.4
20260503180046 76 0.0 0.0 0.00 0.00 0.00 24 1005.2
20260503175101 77 0.0 0.0 0.00 0.00 0.00 24 1005.1
20260503174038 79 0.0 0.0 0.00 0.00 0.00 23 1005.1
20260503173035 80 0.0 0.0 0.00 0.00 0.00 22 1005.1
20260503172029 81 0.0 1.0 0.00 0.00 0.00 21 1005.1
20260503171031 82 0.0 0.0 0.00 0.00 0.00 20 1004.9
20260503140115 87 0.0 0.0 0.00 0.00 0.00 14 1006.0
20260503131059 88 0.0 0.0 0.00 0.00 0.00 14 1006.5
20260503130114 88 0.0 0.0 0.00 0.00 0.00 14 1006.6